Location: Pitton
(51.0667°N, 1.7000°W)
Time: 15:14:10
(UTC+00:00)

USA 234 - Pass Details

Date: 17 September 2019
Orbit: 1103 x 1105 km, 123.0° (Epoch: 17 October)

Event Time Altitude Azimuth Distance (km) Brightness Sun altitude
Exits shadow 20:57:42 29° 74° (ENE) 1,919 4.2 -24.1°
Maximum altitude 21:01:04 57° 10° (N) 1,289 3.7 -24.5°
Drops below altitude 10° 21:07:26 10° 294° (WNW) 2,967 6.5 -25.3°
Sets 21:09:57 0° 290° (WNW) 3,926 7.3 -25.6°
